Погода в Ливерпуле

Великобритания     53°24′06″N   2°56′08″W
темп.,
°C
ветер,
м/с
пор.,
м/с
влажн.,
%
обл.,
%
осадки,
мм/ч
давл.,
гПа
погр.,
м
16 января, вс
вс1600:00+7з3579100 0.1 1021103
03:00+7зюз3988100 0.1 1021330
06:00+7з5989100 0.4 1021266
09:00+8зсз61090100 0.1 1024425
12:00+8сз710793 0.1 1026690
15:00+7сз69805 0.0 1028751
18:00+6сз610815 0.0 1031464
21:00+6сз611822 0.0 1033481
17 января, пн
пн1700:00+7зсз6108511 0.0 1035371
03:00+7зсз610870 0.0 1036382
06:00+6зсз610896 0.0 1036336
09:00+6зсз46911 0.0 1038164
12:00+8з34851 0.0 1038311
15:00+7зсз12861 0.0 103858
18:00+6зюз01890 0.0 103810
21:00+5ююв23900 0.0 103867
18 января, вт
вт1800:00+4юв35880 0.0 1037111
03:00+4ююв22801 0.0 103669
06:00+4юв227710 0.0 103541
09:00+3юв2274100 0.0 103540
12:00+5юв2264100 0.0 1035113
15:00+6юв3465100 0.0 1033112
18:00+6ю247494 0.0 103287
21:00+6ю367998 0.0 1031131
19 января, ср
ср1900:00+5ююз488990 0.0 1029236
03:00+6ю5108849 0.0 1026239
06:00+8юз61291100 0.1 1022462
09:00+8юз51195100 0.8 1021426
12:00+8сз101589100 2.9 1021943
15:00+7сз1015735 0.0 10221151
18:00+6ссз1015742 0.0 1025835
21:00+6ссз812755 0.0 1027797
20 января, чт
чт2000:00+5ссз811675 0.0 1030799
03:00+2с487187 0.0 1032441
06:00+1ссв49695 0.0 1034387
09:00+1с3764100 0.0 1036342
12:00+4ссз57575 0.0 10371139
15:00+4с45605 0.0 1037750
18:00+3ссз36664 0.0 1038361
21:00+3ссз47683 0.0 1038334